Location: Tarleton Observatory
(32.2162°N, 98.0976°W)
Time: 02:58:23
(UTC-05:00)

Daily predictions for brighter satellites

Satellite Brightness Start Highest point End
(mag) Time Altitude Azimuth Time Altitude Azimuth Time Altitude Azimuth
SeaSat 1 4.1 00:23:17 27° NE 00:23:17 27° NE 00:26:33 10° N
Cosmos 2181 Rocket 4.2 00:18:36 10° NNW 00:24:39 67° WNW 00:24:39 67° WNW
H-2A R/B 3.6 00:27:08 28° W 00:27:08 28° W 00:31:12 10° NW
Cosmos 2184 Rocket 4.3 00:28:32 61° NNE 00:28:32 61° NNE 00:33:39 10° N
CZ-4C R/B 4.4 00:25:12 10° N 00:31:03 26° NE 00:33:37 22° ENE
Cosmos 2237 Rocket 3.8 00:30:46 10° NW 00:34:29 25° W 00:34:29 25° W
Terra 4.2 00:48:51 15° WNW 00:48:51 15° WNW 00:50:28 10° NW
Cosmos 2263 Rocket 3.7 01:11:29 28° NE 01:11:29 28° NE 01:14:18 10° NNE
Lacrosse 4 Rocket 4.5 01:16:20 10° WNW 01:16:24 10° WNW 01:16:24 10° WNW
SL-16 R/B 4.4 01:26:20 10° NW 01:28:10 16° WNW 01:28:10 16° WNW
CZ-2C R/B 4.0 01:28:45 10° NNE 01:31:36 33° NNE 01:31:36 33° NNE
ATLAS 3B R/B 4.3 01:30:36 10° NW 01:33:49 22° W 01:33:49 22° W
Cosmos 1943 4.2 01:46:14 10° NNW 01:49:55 42° N 01:49:55 42° N
Cosmos 909 Rocket 4.4 02:06:12 63° NE 02:06:12 63° NE 02:12:01 10° NNE
CZ-4C R/B 3.2 02:12:47 10° NW 02:18:45 57° WNW 02:18:45 57° WNW
NOSS 3-2 (C) 3.9 02:17:49 10° NNW 02:25:27 88° WNW 02:25:27 88° WNW
CZ-2C R/B 4.1 02:28:47 45° NNW 02:28:47 45° NNW 02:32:38 10° NNW
NOSS 3-2 (A) 4.4 02:39:34 10° NW 02:45:41 49° W 02:45:41 49° W
Cosmos 1844 Rocket 3.2 02:49:51 55° NE 02:49:51 55° NE 02:54:20 10° NNE
ATLAS 2A CENTAUR R/B 3.7 02:54:19 43° SE 02:54:19 43° SE 03:08:32 10° ESE
Cosmos 2263 Rocket 4.0 02:53:10 20° WNW 02:53:10 20° WNW 02:57:06 10° NNW
Cosmos 1844 3.9 03:07:06 65° NE 03:07:06 65° NE 03:12:06 10° NNE
SL-08 R/B 4.3 03:08:12 44° ENE 03:08:12 44° ENE 03:12:41 10° N
Meteor 1-11 Rocket 4.3 03:11:07 53° E 03:11:20 53° E 03:17:06 10° NNE
Cosmos 407 Rocket 4.2 03:13:07 10° NNW 03:16:44 45° NNW 03:16:44 45° NNW
Cosmos 2278 Rocket 2.5 03:18:39 60° E 03:18:39 60° E 03:23:56 10° NNE
Cosmos 1535 Rocket 4.3 03:20:20 82° WNW 03:20:20 82° WNW 03:26:33 10° N
AQUA 4.3 03:20:35 10° NNE 03:24:26 58° NNE 03:24:26 58° NNE
Cosmos 1461 3.9 03:26:38 52° NNE 03:26:38 52° NNE 03:30:11 10° NNE
Cosmos 724 4.2 03:21:12 10° NNW 03:27:23 86° WSW 03:27:25 86° SW
Cosmos 676 Rocket 4.4 03:24:51 10° NNW 03:28:56 56° NNW 03:28:56 56° NNW
COSMOS 2406 3.7 03:24:21 10° NNW 03:28:48 50° WNW 03:28:48 50° WNW
Spot 4 Rocket 4.3 03:30:47 10° NNE 03:35:52 58° E 03:36:00 58° ESE
BREEZE-M DEB (TANK) 4.4 03:42:38 17° ENE 03:42:38 17° ENE 03:43:19 10° ENE
USA 234 3.8 03:42:58 10° ESE 03:49:18 57° NE 03:55:41 10° NNW
OAO 3 Copernicus 4.3 03:52:44 71° NW 03:53:03 74° N 03:58:05 10° ENE
Cosmos 1934 Rocket 4.0 03:52:40 55° WSW 03:53:12 57° W 03:59:16 10° N
NPP 4.3 03:49:32 10° N 03:54:33 41° WNW 03:54:34 41° WNW
Cosmos 1954 Rocket 4.2 03:49:50 10° NNW 03:54:09 53° WNW 03:54:09 53° WNW
IRS-1D 3.9 03:50:11 10° NNE 03:55:06 54° E 03:55:57 48° SE
Cosmos 1315 Rocket 3.8 03:55:24 41° E 03:55:28 41° E 03:59:17 10° NNE
Meteor 2-4 Rocket 4.0 03:52:55 10° N 03:58:13 59° E 04:00:20 35° SE
CENTAUR R/B 3.0 03:52:25 10° NNW 04:00:27 79° WSW 04:08:45 10° SSE
ERS-2 4.0 04:00:54 10° NNW 04:02:51 23° NW 04:02:51 23° NW
CZ-2D R/B 2.5 04:02:54 10° NNE 04:08:19 60° E 04:10:16 38° SSE
Meteor 2-15 Rocket 4.3 04:02:25 10° N 04:08:36 85° W 04:10:50 42° S
Cosmos 1025 Rocket 3.2 04:06:14 10° NNW 04:10:01 60° NW 04:10:01 60° NW
UNK 4.5 04:10:43 23° SE 04:13:19 50° ENE 04:17:49 10° N
Cosmos 1153 Rocket 4.4 04:11:32 44° S 04:13:45 85° W 04:20:11 10° N
Cosmos 1455 Rocket 3.0 04:13:29 70° SSE 04:13:59 83° E 04:18:26 10° N
Cosmos 1023 Rocket 4.4 04:12:35 10° NNW 04:17:33 55° WSW 04:17:43 55° WSW
Cosmos 1110 Rocket 4.1 04:16:23 47° S 04:17:54 75° ESE 04:23:12 10° NNE
Okean O Rocket 3.5 04:14:27 10° NE 04:18:02 25° E 04:20:34 15° SE
Timation 2 Rocket 4.1 04:13:59 10° NNW 04:20:03 69° ENE 04:25:58 10° SSE
UNKNOWN OBJECT B 3.5 04:17:12 10° NNE 04:21:12 51° E 04:22:14 40° SE
ARIANE 5 R/B 2.4 04:17:11 10° N 04:22:09 69° WNW 04:23:15 52° SW
Cosmos 1536 4.1 04:23:24 28° WNW 04:23:24 28° WNW 04:26:17 10° NNW
Cosmos 2061 Rocket 4.4 04:19:04 24° SSE 04:22:58 64° E 04:29:16 10° NNE
Okean 2 3.2 04:26:46 10° N 04:30:52 80° W 04:31:38 57° SSW
EO 1 Del DPAF 3.1 04:34:54 49° S 04:35:55 85° WSW 04:39:49 10° NNW
Cosmos 1331 Rocket 3.9 04:35:51 39° SSW 04:37:49 80° WNW 04:43:02 10° NNE
Cosmos 1140 Rocket 4.2 04:34:46 10° NW 04:39:17 33° W 04:39:17 33° W
Cosmos 1544 Rocket 4.5 04:39:49 31° W 04:40:01 31° W 04:43:57 10° NNW
SL-16 R/B 2.4 04:35:41 18° S 04:40:32 75° WSW 04:46:47 10° NNW
Resurs 1-4 Rocket 2.2 04:36:49 10° N 04:42:03 62° WNW 04:44:12 34° SW
Cosmos 2016 Rocket 4.3 04:38:31 16° S 04:43:42 68° E 04:49:54 10° NNE
USA 129 4.2 04:46:19 18° ESE 04:46:57 20° ENE 04:48:35 10° NNE
Atlas Centaur 2 4.0 04:43:35 23° SSW 04:47:38 34° SSE 04:55:02 10° E
Timation 1 Rocket 4.4 04:44:11 26° SSW 04:47:43 79° ESE 04:53:44 10° NNE
Cosmos 2369 Rocket 4.4 04:44:10 10° SE 04:48:07 20° E 04:52:05 10° NE
ATLAS 5 CENTAUR R/B 2.4 04:51:14 10° NW 04:57:22 65° WSW 05:03:48 10° SSE
ADEOS II 4.4 04:56:56 10° NE 05:00:41 20° E 05:04:25 10° SE
Cosmos 2278 Rocket 4.1 05:00:30 13° W 05:02:50 16° WNW 05:06:11 10° NNW
CZ-2C R/B 4.1 05:00:14 10° SSE 05:04:56 71° ENE 05:09:42 10° N
Skynet4D Del rocket 4.1 05:03:43 25° WSW 05:05:51 35° SSW 05:10:48 10° SE
PAYLOAD B 4.4 05:01:02 10° NNE 05:06:39 78° ESE 05:11:57 12° S
Cosmos 2173 Rocket 4.2 05:04:07 21° SSW 05:08:01 52° W 05:14:02 10° N
Orbus 7S 4.1 05:13:17 21° S 05:14:04 24° SSE 05:17:34 10° ESE
CZ-4B DEB 4.3 05:08:48 10° NNE 05:14:24 79° ESE 05:19:56 10° S
CZ-2D R/B 3.9 05:11:35 10° N 05:15:24 42° WNW 05:17:38 22° SW
Cosmos 2285 Rocket 4.0 05:11:14 16° SSW 05:16:27 80° WNW 05:22:47 10° NNE
Cosmos 1302 Rocket 4.1 05:13:49 20° SW 05:17:21 58° WNW 05:22:31 10° N
Yuri Rocket 4.0 05:13:22 15° W 05:18:00 39° SSW 05:22:29 10° SE
BREEZE M DEB (TANK) 4.0 05:05:05 10° NW 05:18:24 80° SW 05:22:15 10° SE
Cosmos 1802 Rocket 4.4 05:19:21 16° SW 05:23:53 44° W 05:29:43 10° N
ASC 2 Rocket 4.2 05:22:45 18° SW 05:25:00 26° SSW 05:28:32 10° SE
CZ-4B R/B 3.3 05:20:15 10° N 05:25:55 72° WNW 05:31:30 10° SSW
Cosmos 2082 Rocket 2.3 05:20:24 10° NNW 05:25:59 57° WSW 05:31:31 10° S
PSLV R/B 4.3 05:24:28 15° W 05:27:00 39° NNW 05:30:11 10° NE
Cosmos 1743 2.7 05:27:39 10° S 05:31:29 87° E 05:35:18 10° N
Cosmos 1825 Rocket 4.0 05:27:53 10° N 05:32:14 66° E 05:36:35 10° SSE
USA 234 3.8 05:26:43 10° S 05:32:23 32° SW 05:38:07 10° WNW
BREEZE-M DEB (TANK) 4.3 05:29:04 11° W 05:32:46 29° NW 05:35:54 10° NNE
Cosmos 1500 3.7 05:30:01 15° SSW 05:32:58 43° W 05:36:43 10° N
Cosmos 2084 3.2 05:30:11 17° SW 05:33:06 65° WNW 05:36:55 10° NNE
Delta R/B 3.4 05:33:19 17° S 05:33:56 19° SSE 05:36:20 10° ESE
Cosmos 1726 Rocket 3.9 05:30:15 10° S 05:34:39 70° E 05:39:02 10° NNE
BREEZE-M TANK 3.0 05:34:02 10° WNW 05:36:45 39° SSW 05:43:09 10° SE
Cosmos 1515 3.9 05:33:28 10° NNW 05:37:11 52° W 05:40:54 10° S
Cosmos 1346 Rocket 3.2 05:36:39 10° NNW 05:40:29 43° W 05:44:16 10° SSW
Cosmos 1992 Rocket 4.3 05:38:50 10° S 05:44:00 68° ESE 05:49:11 10° NNE
Cosmos 2058 Rocket 3.4 05:41:02 10° S 05:45:21 69° E 05:49:41 10° NNE
CZ-2D R/B 4.0 05:44:52 10° NNW 05:47:49 15° WNW 05:50:46 10° W
Okean-O 2.6 05:44:29 10° N 05:48:56 86° W 05:53:21 10° SSW
ADEOS Rocket 3.7 05:47:38 10° NNE 05:53:09 54° ESE 05:59:03 10° S
Okean O Rocket 3.0 05:50:56 10° NNW 05:54:15 22° WNW 05:57:33 10° WSW
CZ-4B R/B 3.9 05:51:14 10° N 05:55:19 35° WNW 05:59:17 10° SW
Cosmos 1066 Rocket 4.2 05:50:04 10° NNW 05:55:22 56° W 06:00:34 10° S
CZ-3 Stage 3 3.9 05:20:15 10° WSW 05:56:04 75° S 06:01:46 10° E
Cosmos 1486 Rocket 4.5 05:52:35 10° NNW 05:57:34 41° W 06:02:32 10° S
Cosmos 1842 4.5 05:56:05 10° N 05:59:54 47° E 06:03:44 10° SSE
PSLV R/B 3.5 05:57:03 10° N 06:01:15 68° WNW 06:05:24 10° SSW
Cosmos 1833 Rocket 3.4 05:58:26 10° NW 06:03:22 32° WSW 06:08:17 10° SSW
Cosmos 2098 Rocket 3.7 06:01:08 10° SW 06:04:14 30° WNW 06:07:59 10° NNW
Tsikada Rocket 4.2 05:58:48 10° NNW 06:04:46 53° W 06:10:46 10° SSW
